Date_Time,Julian_Date,Latitude,Longitude,Instrument_Depth,Water_Temperature
(yyyy-mm-dd hh:mn:ss UTC),(JD),(+ deg. North),(+ deg. East),(m),(deg. C)
1982-06-03 00:00:00 UTC,2445123.500000,29.6650,-93.4789,0076,25.5000
1982-06-03 00:30:00 UTC,2445123.520833,29.6650,-93.4789,0076,25.5000
1982-06-03 01:00:00 UTC,2445123.541667,29.6650,-93.4789,0076,25.5000
1982-06-03 01:30:00 UTC,2445123.562500,29.6650,-93.4789,0076,25.5000
1982-06-03 02:00:00 UTC,2445123.583333,29.6650,-93.4789,0076,25.5000
1982-06-03 02:30:00 UTC,2445123.604167,29.6650,-93.4789,0076,25.5000
1982-06-03 03:00:00 UTC,2445123.625000,29.6650,-93.4789,0076,25.5000
1982-06-03 03:30:00 UTC,2445123.645833,29.6650,-93.4789,0076,25.5000
1982-06-03 04:00:00 UTC,2445123.666667,29.6650,-93.4789,0076,25.5000
1982-06-03 04:30:00 UTC,2445123.687500,29.6650,-93.4789,0076,25.5000
1982-06-03 05:00:00 UTC,2445123.708333,29.6650,-93.4789,0076,25.5000
1982-06-03 05:30:00 UTC,2445123.729167,29.6650,-93.4789,0076,25.5000
1982-06-03 06:00:00 UTC,2445123.750000,29.6650,-93.4789,0076,25.5000
1982-06-03 06:30:00 UTC,2445123.770833,29.6650,-93.4789,0076,25.5000
1982-06-03 07:00:00 UTC,2445123.791667,29.6650,-93.4789,0076,25.5000
1982-06-03 07:30:00 UTC,2445123.812500,29.6650,-93.4789,0076,25.5000
1982-06-03 08:00:00 UTC,2445123.833333,29.6650,-93.4789,0076,25.5000
1982-06-03 08:30:00 UTC,2445123.854167,29.6650,-93.4789,0076,25.5000
1982-06-03 09:00:00 UTC,2445123.875000,29.6650,-93.4789,0076,25.5000
1982-06-03 09:30:00 UTC,2445123.895833,29.6650,-93.4789,0076,25.5000
1982-06-03 10:00:00 UTC,2445123.916667,29.6650,-93.4789,0076,25.5000
1982-06-03 10:30:00 UTC,2445123.937500,29.6650,-93.4789,0076,25.5000
1982-06-03 11:00:00 UTC,2445123.958333,29.6650,-93.4789,0076,25.5000
1982-06-03 11:30:00 UTC,2445123.979167,29.6650,-93.4789,0076,25.5000
1982-06-03 12:00:00 UTC,2445124.000000,29.6650,-93.4789,0076,25.5000
1982-06-03 12:30:00 UTC,2445124.020833,29.6650,-93.4789,0076,25.5000
1982-06-03 13:00:00 UTC,2445124.041667,29.6650,-93.4789,0076,25.5000
1982-06-03 13:30:00 UTC,2445124.062500,29.6650,-93.4789,0076,25.5000
1982-06-03 14:00:00 UTC,2445124.083333,29.6650,-93.4789,0076,25.5000
1982-06-03 14:30:00 UTC,2445124.104167,29.6650,-93.4789,0076,25.5000
1982-06-03 15:00:00 UTC,2445124.125000,29.6650,-93.4789,0076,25.5000
1982-06-03 15:30:00 UTC,2445124.145833,29.6650,-93.4789,0076,25.5000
1982-06-03 16:00:00 UTC,2445124.166667,29.6650,-93.4789,0076,25.5000
1982-06-03 16:30:00 UTC,2445124.187500,29.6650,-93.4789,0076,25.5000
1982-06-03 17:00:00 UTC,2445124.208333,29.6650,-93.4789,0076,25.5000
1982-06-03 17:30:00 UTC,2445124.229167,29.6650,-93.4789,0076,25.5000
1982-06-03 18:00:00 UTC,2445124.250000,29.6650,-93.4789,0076,25.5000
1982-06-03 18:30:00 UTC,2445124.270833,29.6650,-93.4789,0076,25.5000
1982-06-03 19:00:00 UTC,2445124.291667,29.6650,-93.4789,0076,25.5000
1982-06-03 19:30:00 UTC,2445124.312500,29.6650,-93.4789,0076,25.5000
1982-06-03 20:00:00 UTC,2445124.333333,29.6650,-93.4789,0076,25.5000
1982-06-03 20:30:00 UTC,2445124.354167,29.6650,-93.4789,0076,25.5000
1982-06-03 21:00:00 UTC,2445124.375000,29.6650,-93.4789,0076,25.5000
1982-06-03 21:30:00 UTC,2445124.395833,29.6650,-93.4789,0076,25.5000
1982-06-03 22:00:00 UTC,2445124.416667,29.6650,-93.4789,0076,25.5000
1982-06-03 22:30:00 UTC,2445124.437500,29.6650,-93.4789,0076,25.5000
1982-06-03 23:00:00 UTC,2445124.458333,29.6650,-93.4789,0076,25.5000
1982-06-03 23:30:00 UTC,2445124.479167,29.6650,-93.4789,0076,25.5000
1982-06-04 00:00:00 UTC,2445124.500000,29.6650,-93.4789,0076,25.5000
1982-06-04 00:30:00 UTC,2445124.520833,29.6650,-93.4789,0076,25.5000
1982-06-04 01:00:00 UTC,2445124.541667,29.6650,-93.4789,0076,25.5000
1982-06-04 01:30:00 UTC,2445124.562500,29.6650,-93.4789,0076,25.5000
1982-06-04 02:00:00 UTC,2445124.583333,29.6650,-93.4789,0076,25.5000
1982-06-04 02:30:00 UTC,2445124.604167,29.6650,-93.4789,0076,25.5000
1982-06-04 03:00:00 UTC,2445124.625000,29.6650,-93.4789,0076,25.5000
1982-06-04 03:30:00 UTC,2445124.645833,29.6650,-93.4789,0076,25.5000
1982-06-04 04:00:00 UTC,2445124.666667,29.6650,-93.4789,0076,25.5000
1982-06-04 04:30:00 UTC,2445124.687500,29.6650,-93.4789,0076,25.5000
1982-06-04 05:00:00 UTC,2445124.708333,29.6650,-93.4789,0076,25.5000
1982-06-04 05:30:00 UTC,2445124.729167,29.6650,-93.4789,0076,25.5000
1982-06-04 06:00:00 UTC,2445124.750000,29.6650,-93.4789,0076,25.5000
1982-06-04 06:30:00 UTC,2445124.770833,29.6650,-93.4789,0076,25.5000
1982-06-04 07:00:00 UTC,2445124.791667,29.6650,-93.4789,0076,25.5000
1982-06-04 07:30:00 UTC,2445124.812500,29.6650,-93.4789,0076,25.5000
1982-06-04 08:00:00 UTC,2445124.833333,29.6650,-93.4789,0076,25.5000
1982-06-04 08:30:00 UTC,2445124.854167,29.6650,-93.4789,0076,25.5000
1982-06-04 09:00:00 UTC,2445124.875000,29.6650,-93.4789,0076,25.5000
1982-06-04 09:30:00 UTC,2445124.895833,29.6650,-93.4789,0076,25.5000
1982-06-04 10:00:00 UTC,2445124.916667,29.6650,-93.4789,0076,25.5000
1982-06-04 10:30:00 UTC,2445124.937500,29.6650,-93.4789,0076,25.6000
1982-06-04 11:00:00 UTC,2445124.958333,29.6650,-93.4789,0076,25.6000
1982-06-04 11:30:00 UTC,2445124.979167,29.6650,-93.4789,0076,25.6000
1982-06-04 12:00:00 UTC,2445125.000000,29.6650,-93.4789,0076,25.6000
1982-06-04 12:30:00 UTC,2445125.020833,29.6650,-93.4789,0076,25.6000
1982-06-04 13:00:00 UTC,2445125.041667,29.6650,-93.4789,0076,25.6000
1982-06-04 13:30:00 UTC,2445125.062500,29.6650,-93.4789,0076,25.6000
1982-06-04 14:00:00 UTC,2445125.083333,29.6650,-93.4789,0076,25.6000
1982-06-04 14:30:00 UTC,2445125.104167,29.6650,-93.4789,0076,25.6000
1982-06-04 15:00:00 UTC,2445125.125000,29.6650,-93.4789,0076,25.6000
1982-06-04 15:30:00 UTC,2445125.145833,29.6650,-93.4789,0076,25.6000
1982-06-04 16:00:00 UTC,2445125.166667,29.6650,-93.4789,0076,25.7000
1982-06-04 16:30:00 UTC,2445125.187500,29.6650,-93.4789,0076,25.7000
1982-06-04 17:00:00 UTC,2445125.208333,29.6650,-93.4789,0076,25.7000
1982-06-04 17:30:00 UTC,2445125.229167,29.6650,-93.4789,0076,25.6000
1982-06-04 18:00:00 UTC,2445125.250000,29.6650,-93.4789,0076,25.6000
1982-06-04 18:30:00 UTC,2445125.270833,29.6650,-93.4789,0076,25.6000
1982-06-04 19:00:00 UTC,2445125.291667,29.6650,-93.4789,0076,25.6000
1982-06-04 19:30:00 UTC,2445125.312500,29.6650,-93.4789,0076,25.6000
1982-06-04 20:00:00 UTC,2445125.333333,29.6650,-93.4789,0076,25.6000
1982-06-04 20:30:00 UTC,2445125.354167,29.6650,-93.4789,0076,25.6000
1982-06-04 21:00:00 UTC,2445125.375000,29.6650,-93.4789,0076,25.6000
1982-06-04 21:30:00 UTC,2445125.395833,29.6650,-93.4789,0076,25.6000
1982-06-04 22:00:00 UTC,2445125.416667,29.6650,-93.4789,0076,25.6000
1982-06-04 22:30:00 UTC,2445125.437500,29.6650,-93.4789,0076,25.5000
1982-06-04 23:00:00 UTC,2445125.458333,29.6650,-93.4789,0076,25.5000
1982-06-04 23:30:00 UTC,2445125.479167,29.6650,-93.4789,0076,25.5000
1982-06-05 00:00:00 UTC,2445125.500000,29.6650,-93.4789,0076,25.5000
1982-06-05 00:30:00 UTC,2445125.520833,29.6650,-93.4789,0076,25.5000
1982-06-05 01:00:00 UTC,2445125.541667,29.6650,-93.4789,0076,25.5000
1982-06-05 01:30:00 UTC,2445125.562500,29.6650,-93.4789,0076,25.5000
1982-06-05 02:00:00 UTC,2445125.583333,29.6650,-93.4789,0076,25.5000
1982-06-05 02:30:00 UTC,2445125.604167,29.6650,-93.4789,0076,25.5000
1982-06-05 03:00:00 UTC,2445125.625000,29.6650,-93.4789,0076,25.5000
1982-06-05 03:30:00 UTC,2445125.645833,29.6650,-93.4789,0076,25.4000
1982-06-05 04:00:00 UTC,2445125.666667,29.6650,-93.4789,0076,25.4000
1982-06-05 04:30:00 UTC,2445125.687500,29.6650,-93.4789,0076,25.4000
1982-06-05 05:00:00 UTC,2445125.708333,29.6650,-93.4789,0076,25.4000
1982-06-05 05:30:00 UTC,2445125.729167,29.6650,-93.4789,0076,25.3000
1982-06-05 06:00:00 UTC,2445125.750000,29.6650,-93.4789,0076,25.3000
1982-06-05 06:30:00 UTC,2445125.770833,29.6650,-93.4789,0076,25.3000
1982-06-05 07:00:00 UTC,2445125.791667,29.6650,-93.4789,0076,25.3000
1982-06-05 07:30:00 UTC,2445125.812500,29.6650,-93.4789,0076,25.4000
1982-06-05 08:00:00 UTC,2445125.833333,29.6650,-93.4789,0076,25.4000
1982-06-05 08:30:00 UTC,2445125.854167,29.6650,-93.4789,0076,25.4000
1982-06-05 09:00:00 UTC,2445125.875000,29.6650,-93.4789,0076,25.5000
1982-06-05 09:30:00 UTC,2445125.895833,29.6650,-93.4789,0076,25.5000
1982-06-05 10:00:00 UTC,2445125.916667,29.6650,-93.4789,0076,25.5000
1982-06-05 10:30:00 UTC,2445125.937500,29.6650,-93.4789,0076,25.5000
1982-06-05 11:00:00 UTC,2445125.958333,29.6650,-93.4789,0076,25.5000
1982-06-05 11:30:00 UTC,2445125.979167,29.6650,-93.4789,0076,25.5000
1982-06-05 12:00:00 UTC,2445126.000000,29.6650,-93.4789,0076,25.5000
1982-06-05 12:30:00 UTC,2445126.020833,29.6650,-93.4789,0076,25.4000
1982-06-05 13:00:00 UTC,2445126.041667,29.6650,-93.4789,0076,25.4000
1982-06-05 13:30:00 UTC,2445126.062500,29.6650,-93.4789,0076,25.4000
1982-06-05 14:00:00 UTC,2445126.083333,29.6650,-93.4789,0076,25.3000
1982-06-05 14:30:00 UTC,2445126.104167,29.6650,-93.4789,0076,25.3000
1982-06-05 15:00:00 UTC,2445126.125000,29.6650,-93.4789,0076,25.3000
1982-06-05 15:30:00 UTC,2445126.145833,29.6650,-93.4789,0076,25.3000
1982-06-05 16:00:00 UTC,2445126.166667,29.6650,-93.4789,0076,25.3000
1982-06-05 16:30:00 UTC,2445126.187500,29.6650,-93.4789,0076,25.3000
1982-06-05 17:00:00 UTC,2445126.208333,29.6650,-93.4789,0076,25.3000
1982-06-05 17:30:00 UTC,2445126.229167,29.6650,-93.4789,0076,25.3000
1982-06-05 18:00:00 UTC,2445126.250000,29.6650,-93.4789,0076,25.3000
1982-06-05 18:30:00 UTC,2445126.270833,29.6650,-93.4789,0076,25.3000
1982-06-05 19:00:00 UTC,2445126.291667,29.6650,-93.4789,0076,25.3000
1982-06-05 19:30:00 UTC,2445126.312500,29.6650,-93.4789,0076,25.2000
1982-06-05 20:00:00 UTC,2445126.333333,29.6650,-93.4789,0076,25.2000
1982-06-05 20:30:00 UTC,2445126.354167,29.6650,-93.4789,0076,25.2000
1982-06-05 21:00:00 UTC,2445126.375000,29.6650,-93.4789,0076,25.3000
1982-06-05 21:30:00 UTC,2445126.395833,29.6650,-93.4789,0076,25.3000
1982-06-05 22:00:00 UTC,2445126.416667,29.6650,-93.4789,0076,25.3000
1982-06-05 22:30:00 UTC,2445126.437500,29.6650,-93.4789,0076,25.4000
1982-06-05 23:00:00 UTC,2445126.458333,29.6650,-93.4789,0076,25.4000
1982-06-05 23:30:00 UTC,2445126.479167,29.6650,-93.4789,0076,25.4000
1982-06-06 00:00:00 UTC,2445126.500000,29.6650,-93.4789,0076,25.4000
1982-06-06 00:30:00 UTC,2445126.520833,29.6650,-93.4789,0076,25.4000
1982-06-06 01:00:00 UTC,2445126.541667,29.6650,-93.4789,0076,25.5000
1982-06-06 01:30:00 UTC,2445126.562500,29.6650,-93.4789,0076,25.5000
1982-06-06 02:00:00 UTC,2445126.583333,29.6650,-93.4789,0076,25.5000
1982-06-06 02:30:00 UTC,2445126.604167,29.6650,-93.4789,0076,25.5000
1982-06-06 03:00:00 UTC,2445126.625000,29.6650,-93.4789,0076,25.5000
1982-06-06 03:30:00 UTC,2445126.645833,29.6650,-93.4789,0076,25.6000
1982-06-06 04:00:00 UTC,2445126.666667,29.6650,-93.4789,0076,25.6000
1982-06-06 04:30:00 UTC,2445126.687500,29.6650,-93.4789,0076,25.6000
1982-06-06 05:00:00 UTC,2445126.708333,29.6650,-93.4789,0076,25.5000
1982-06-06 05:30:00 UTC,2445126.729167,29.6650,-93.4789,0076,25.4000
1982-06-06 06:00:00 UTC,2445126.750000,29.6650,-93.4789,0076,25.4000
1982-06-06 06:30:00 UTC,2445126.770833,29.6650,-93.4789,0076,25.4000
1982-06-06 07:00:00 UTC,2445126.791667,29.6650,-93.4789,0076,25.3000
1982-06-06 07:30:00 UTC,2445126.812500,29.6650,-93.4789,0076,25.3000
1982-06-06 08:00:00 UTC,2445126.833333,29.6650,-93.4789,0076,25.3000
1982-06-06 08:30:00 UTC,2445126.854167,29.6650,-93.4789,0076,25.3000
1982-06-06 09:00:00 UTC,2445126.875000,29.6650,-93.4789,0076,25.3000
1982-06-06 09:30:00 UTC,2445126.895833,29.6650,-93.4789,0076,25.3000
1982-06-06 10:00:00 UTC,2445126.916667,29.6650,-93.4789,0076,25.3000
1982-06-06 10:30:00 UTC,2445126.937500,29.6650,-93.4789,0076,25.3000
1982-06-06 11:00:00 UTC,2445126.958333,29.6650,-93.4789,0076,25.2000
1982-06-06 11:30:00 UTC,2445126.979167,29.6650,-93.4789,0076,25.2000
1982-06-06 12:00:00 UTC,2445127.000000,29.6650,-93.4789,0076,25.2000
1982-06-06 12:30:00 UTC,2445127.020833,29.6650,-93.4789,0076,25.2000
1982-06-06 13:00:00 UTC,2445127.041667,29.6650,-93.4789,0076,25.3000
1982-06-06 13:30:00 UTC,2445127.062500,29.6650,-93.4789,0076,25.3000
1982-06-06 14:00:00 UTC,2445127.083333,29.6650,-93.4789,0076,25.3000
1982-06-06 14:30:00 UTC,2445127.104167,29.6650,-93.4789,0076,25.3000
1982-06-06 15:00:00 UTC,2445127.125000,29.6650,-93.4789,0076,25.3000
1982-06-06 15:30:00 UTC,2445127.145833,29.6650,-93.4789,0076,25.3000
1982-06-06 16:00:00 UTC,2445127.166667,29.6650,-93.4789,0076,25.3000
1982-06-06 16:30:00 UTC,2445127.187500,29.6650,-93.4789,0076,25.3000
1982-06-06 17:00:00 UTC,2445127.208333,29.6650,-93.4789,0076,25.3000
1982-06-06 17:30:00 UTC,2445127.229167,29.6650,-93.4789,0076,25.3000
1982-06-06 18:00:00 UTC,2445127.250000,29.6650,-93.4789,0076,25.3000
1982-06-06 18:30:00 UTC,2445127.270833,29.6650,-93.4789,0076,25.3000
1982-06-06 19:00:00 UTC,2445127.291667,29.6650,-93.4789,0076,25.3000
1982-06-06 19:30:00 UTC,2445127.312500,29.6650,-93.4789,0076,25.3000
1982-06-06 20:00:00 UTC,2445127.333333,29.6650,-93.4789,0076,25.3000
1982-06-06 20:30:00 UTC,2445127.354167,29.6650,-93.4789,0076,25.3000
1982-06-06 21:00:00 UTC,2445127.375000,29.6650,-93.4789,0076,25.3000
1982-06-06 21:30:00 UTC,2445127.395833,29.6650,-93.4789,0076,25.3000
1982-06-06 22:00:00 UTC,2445127.416667,29.6650,-93.4789,0076,25.3000
1982-06-06 22:30:00 UTC,2445127.437500,29.6650,-93.4789,0076,25.3000
1982-06-06 23:00:00 UTC,2445127.458333,29.6650,-93.4789,0076,25.3000
1982-06-06 23:30:00 UTC,2445127.479167,29.6650,-93.4789,0076,25.4000
1982-06-07 00:00:00 UTC,2445127.500000,29.6650,-93.4789,0076,25.4000
1982-06-07 00:30:00 UTC,2445127.520833,29.6650,-93.4789,0076,25.4000
1982-06-07 01:00:00 UTC,2445127.541667,29.6650,-93.4789,0076,25.4000
1982-06-07 01:30:00 UTC,2445127.562500,29.6650,-93.4789,0076,25.4000
1982-06-07 02:00:00 UTC,2445127.583333,29.6650,-93.4789,0076,25.4000
1982-06-07 02:30:00 UTC,2445127.604167,29.6650,-93.4789,0076,25.5000
1982-06-07 03:00:00 UTC,2445127.625000,29.6650,-93.4789,0076,25.5000
1982-06-07 03:30:00 UTC,2445127.645833,29.6650,-93.4789,0076,25.4000
1982-06-07 04:00:00 UTC,2445127.666667,29.6650,-93.4789,0076,25.4000
1982-06-07 04:30:00 UTC,2445127.687500,29.6650,-93.4789,0076,25.4000
1982-06-07 05:00:00 UTC,2445127.708333,29.6650,-93.4789,0076,25.4000
1982-06-07 05:30:00 UTC,2445127.729167,29.6650,-93.4789,0076,25.4000
1982-06-07 06:00:00 UTC,2445127.750000,29.6650,-93.4789,0076,25.4000
1982-06-07 06:30:00 UTC,2445127.770833,29.6650,-93.4789,0076,25.4000
1982-06-07 07:00:00 UTC,2445127.791667,29.6650,-93.4789,0076,25.4000
1982-06-07 07:30:00 UTC,2445127.812500,29.6650,-93.4789,0076,25.4000
1982-06-07 08:00:00 UTC,2445127.833333,29.6650,-93.4789,0076,25.4000
1982-06-07 08:30:00 UTC,2445127.854167,29.6650,-93.4789,0076,25.4000
1982-06-07 09:00:00 UTC,2445127.875000,29.6650,-93.4789,0076,25.4000
1982-06-07 09:30:00 UTC,2445127.895833,29.6650,-93.4789,0076,25.5000
1982-06-07 10:00:00 UTC,2445127.916667,29.6650,-93.4789,0076,25.5000
1982-06-07 10:30:00 UTC,2445127.937500,29.6650,-93.4789,0076,25.5000
1982-06-07 11:00:00 UTC,2445127.958333,29.6650,-93.4789,0076,25.5000
1982-06-07 11:30:00 UTC,2445127.979167,29.6650,-93.4789,0076,25.5000
1982-06-07 12:00:00 UTC,2445128.000000,29.6650,-93.4789,0076,25.5000
1982-06-07 12:30:00 UTC,2445128.020833,29.6650,-93.4789,0076,25.5000
1982-06-07 13:00:00 UTC,2445128.041667,29.6650,-93.4789,0076,25.5000
1982-06-07 13:30:00 UTC,2445128.062500,29.6650,-93.4789,0076,25.5000
1982-06-07 14:00:00 UTC,2445128.083333,29.6650,-93.4789,0076,25.4000
1982-06-07 14:30:00 UTC,2445128.104167,29.6650,-93.4789,0076,25.4000
1982-06-07 15:00:00 UTC,2445128.125000,29.6650,-93.4789,0076,25.4000
1982-06-07 15:30:00 UTC,2445128.145833,29.6650,-93.4789,0076,25.4000
1982-06-07 16:00:00 UTC,2445128.166667,29.6650,-93.4789,0076,25.5000
1982-06-07 16:30:00 UTC,2445128.187500,29.6650,-93.4789,0076,25.4000
1982-06-07 17:00:00 UTC,2445128.208333,29.6650,-93.4789,0076,25.4000
1982-06-07 17:30:00 UTC,2445128.229167,29.6650,-93.4789,0076,25.4000
1982-06-07 18:00:00 UTC,2445128.250000,29.6650,-93.4789,0076,25.4000
1982-06-07 18:30:00 UTC,2445128.270833,29.6650,-93.4789,0076,25.4000
1982-06-07 19:00:00 UTC,2445128.291667,29.6650,-93.4789,0076,25.4000
1982-06-07 19:30:00 UTC,2445128.312500,29.6650,-93.4789,0076,25.4000
1982-06-07 20:00:00 UTC,2445128.333333,29.6650,-93.4789,0076,25.4000
1982-06-07 20:30:00 UTC,2445128.354167,29.6650,-93.4789,0076,25.4000
1982-06-07 21:00:00 UTC,2445128.375000,29.6650,-93.4789,0076,25.4000
1982-06-07 21:30:00 UTC,2445128.395833,29.6650,-93.4789,0076,25.5000
1982-06-07 22:00:00 UTC,2445128.416667,29.6650,-93.4789,0076,25.5000
1982-06-07 22:30:00 UTC,2445128.437500,29.6650,-93.4789,0076,25.4000
1982-06-07 23:00:00 UTC,2445128.458333,29.6650,-93.4789,0076,25.4000
1982-06-07 23:30:00 UTC,2445128.479167,29.6650,-93.4789,0076,25.4000
1982-06-08 00:00:00 UTC,2445128.500000,29.6650,-93.4789,0076,25.4000
1982-06-08 00:30:00 UTC,2445128.520833,29.6650,-93.4789,0076,25.4000
1982-06-08 01:00:00 UTC,2445128.541667,29.6650,-93.4789,0076,25.4000
1982-06-08 01:30:00 UTC,2445128.562500,29.6650,-93.4789,0076,25.4000
1982-06-08 02:00:00 UTC,2445128.583333,29.6650,-93.4789,0076,25.4000
1982-06-08 02:30:00 UTC,2445128.604167,29.6650,-93.4789,0076,25.5000
1982-06-08 03:00:00 UTC,2445128.625000,29.6650,-93.4789,0076,25.5000
1982-06-08 03:30:00 UTC,2445128.645833,29.6650,-93.4789,0076,25.6000
1982-06-08 04:00:00 UTC,2445128.666667,29.6650,-93.4789,0076,25.6000
1982-06-08 04:30:00 UTC,2445128.687500,29.6650,-93.4789,0076,25.6000
1982-06-08 05:00:00 UTC,2445128.708333,29.6650,-93.4789,0076,25.7000
1982-06-08 05:30:00 UTC,2445128.729167,29.6650,-93.4789,0076,25.8000
1982-06-08 06:00:00 UTC,2445128.750000,29.6650,-93.4789,0076,25.8000
1982-06-08 06:30:00 UTC,2445128.770833,29.6650,-93.4789,0076,25.8000
1982-06-08 07:00:00 UTC,2445128.791667,29.6650,-93.4789,0076,25.7000
1982-06-08 07:30:00 UTC,2445128.812500,29.6650,-93.4789,0076,25.6000
1982-06-08 08:00:00 UTC,2445128.833333,29.6650,-93.4789,0076,25.6000
1982-06-08 08:30:00 UTC,2445128.854167,29.6650,-93.4789,0076,25.6000
1982-06-08 09:00:00 UTC,2445128.875000,29.6650,-93.4789,0076,25.6000
1982-06-08 09:30:00 UTC,2445128.895833,29.6650,-93.4789,0076,25.6000
1982-06-08 10:00:00 UTC,2445128.916667,29.6650,-93.4789,0076,25.6000
1982-06-08 10:30:00 UTC,2445128.937500,29.6650,-93.4789,0076,25.6000
1982-06-08 11:00:00 UTC,2445128.958333,29.6650,-93.4789,0076,25.6000
1982-06-08 11:30:00 UTC,2445128.979167,29.6650,-93.4789,0076,25.6000
1982-06-08 12:00:00 UTC,2445129.000000,29.6650,-93.4789,0076,25.6000
1982-06-08 12:30:00 UTC,2445129.020833,29.6650,-93.4789,0076,25.6000
1982-06-08 13:00:00 UTC,2445129.041667,29.6650,-93.4789,0076,25.6000
1982-06-08 13:30:00 UTC,2445129.062500,29.6650,-93.4789,0076,25.6000
1982-06-08 14:00:00 UTC,2445129.083333,29.6650,-93.4789,0076,25.6000
1982-06-08 14:30:00 UTC,2445129.104167,29.6650,-93.4789,0076,25.6000
1982-06-08 15:00:00 UTC,2445129.125000,29.6650,-93.4789,0076,25.6000
1982-06-08 15:30:00 UTC,2445129.145833,29.6650,-93.4789,0076,25.7000
1982-06-08 16:00:00 UTC,2445129.166667,29.6650,-93.4789,0076,25.7000
1982-06-08 16:30:00 UTC,2445129.187500,29.6650,-93.4789,0076,25.7000
1982-06-08 17:00:00 UTC,2445129.208333,29.6650,-93.4789,0076,25.7000
1982-06-08 17:30:00 UTC,2445129.229167,29.6650,-93.4789,0076,25.7000
1982-06-08 18:00:00 UTC,2445129.250000,29.6650,-93.4789,0076,25.7000
1982-06-08 18:30:00 UTC,2445129.270833,29.6650,-93.4789,0076,25.7000
1982-06-08 19:00:00 UTC,2445129.291667,29.6650,-93.4789,0076,25.7000
1982-06-08 19:30:00 UTC,2445129.312500,29.6650,-93.4789,0076,25.7000
1982-06-08 20:00:00 UTC,2445129.333333,29.6650,-93.4789,0076,25.7000
1982-06-08 20:30:00 UTC,2445129.354167,29.6650,-93.4789,0076,25.7000
1982-06-08 21:00:00 UTC,2445129.375000,29.6650,-93.4789,0076,25.7000
1982-06-08 21:30:00 UTC,2445129.395833,29.6650,-93.4789,0076,25.7000
1982-06-08 22:00:00 UTC,2445129.416667,29.6650,-93.4789,0076,25.7000
1982-06-08 22:30:00 UTC,2445129.437500,29.6650,-93.4789,0076,25.7000
1982-06-08 23:00:00 UTC,2445129.458333,29.6650,-93.4789,0076,25.7000
1982-06-08 23:30:00 UTC,2445129.479167,29.6650,-93.4789,0076,25.7000
1982-06-09 00:00:00 UTC,2445129.500000,29.6650,-93.4789,0076,25.7000
1982-06-09 00:30:00 UTC,2445129.520833,29.6650,-93.4789,0076,25.7000
1982-06-09 01:00:00 UTC,2445129.541667,29.6650,-93.4789,0076,25.7000
1982-06-09 01:30:00 UTC,2445129.562500,29.6650,-93.4789,0076,25.7000
1982-06-09 02:00:00 UTC,2445129.583333,29.6650,-93.4789,0076,25.6000
1982-06-09 02:30:00 UTC,2445129.604167,29.6650,-93.4789,0076,25.6000
1982-06-09 03:00:00 UTC,2445129.625000,29.6650,-93.4789,0076,25.6000
1982-06-09 03:30:00 UTC,2445129.645833,29.6650,-93.4789,0076,25.5000
1982-06-09 04:00:00 UTC,2445129.666667,29.6650,-93.4789,0076,25.5000
1982-06-09 04:30:00 UTC,2445129.687500,29.6650,-93.4789,0076,25.5000
1982-06-09 05:00:00 UTC,2445129.708333,29.6650,-93.4789,0076,25.5000
1982-06-09 05:30:00 UTC,2445129.729167,29.6650,-93.4789,0076,25.5000
1982-06-09 06:00:00 UTC,2445129.750000,29.6650,-93.4789,0076,25.5000
1982-06-09 06:30:00 UTC,2445129.770833,29.6650,-93.4789,0076,25.5000
1982-06-09 07:00:00 UTC,2445129.791667,29.6650,-93.4789,0076,25.5000
1982-06-09 07:30:00 UTC,2445129.812500,29.6650,-93.4789,0076,25.5000
1982-06-09 08:00:00 UTC,2445129.833333,29.6650,-93.4789,0076,25.6000
1982-06-09 08:30:00 UTC,2445129.854167,29.6650,-93.4789,0076,25.7000
1982-06-09 09:00:00 UTC,2445129.875000,29.6650,-93.4789,0076,25.7000
1982-06-09 09:30:00 UTC,2445129.895833,29.6650,-93.4789,0076,25.8000
1982-06-09 10:00:00 UTC,2445129.916667,29.6650,-93.4789,0076,25.8000
1982-06-09 10:30:00 UTC,2445129.937500,29.6650,-93.4789,0076,25.8000
1982-06-09 11:00:00 UTC,2445129.958333,29.6650,-93.4789,0076,25.8000
1982-06-09 11:30:00 UTC,2445129.979167,29.6650,-93.4789,0076,25.8000
1982-06-09 12:00:00 UTC,2445130.000000,29.6650,-93.4789,0076,25.8000
1982-06-09 12:30:00 UTC,2445130.020833,29.6650,-93.4789,0076,25.8000
1982-06-09 13:00:00 UTC,2445130.041667,29.6650,-93.4789,0076,25.8000
1982-06-09 13:30:00 UTC,2445130.062500,29.6650,-93.4789,0076,25.8000
1982-06-09 14:00:00 UTC,2445130.083333,29.6650,-93.4789,0076,25.8000
1982-06-09 14:30:00 UTC,2445130.104167,29.6650,-93.4789,0076,25.8000
1982-06-09 15:00:00 UTC,2445130.125000,29.6650,-93.4789,0076,26.0000
1982-06-09 15:30:00 UTC,2445130.145833,29.6650,-93.4789,0076,26.3000
1982-06-09 16:00:00 UTC,2445130.166667,29.6650,-93.4789,0076,26.6000
1982-06-09 16:30:00 UTC,2445130.187500,29.6650,-93.4789,0076,26.8000
1982-06-09 17:00:00 UTC,2445130.208333,29.6650,-93.4789,0076,26.8000
1982-06-09 17:30:00 UTC,2445130.229167,29.6650,-93.4789,0076,26.7000
1982-06-09 18:00:00 UTC,2445130.250000,29.6650,-93.4789,0076,26.5000
1982-06-09 18:30:00 UTC,2445130.270833,29.6650,-93.4789,0076,26.4000
1982-06-09 19:00:00 UTC,2445130.291667,29.6650,-93.4789,0076,26.3000
1982-06-09 19:30:00 UTC,2445130.312500,29.6650,-93.4789,0076,26.3000
1982-06-09 20:00:00 UTC,2445130.333333,29.6650,-93.4789,0076,26.2000
1982-06-09 20:30:00 UTC,2445130.354167,29.6650,-93.4789,0076,26.1000
1982-06-09 21:00:00 UTC,2445130.375000,29.6650,-93.4789,0076,26.1000
1982-06-09 21:30:00 UTC,2445130.395833,29.6650,-93.4789,0076,26.0000
1982-06-09 22:00:00 UTC,2445130.416667,29.6650,-93.4789,0076,25.9000
1982-06-09 22:30:00 UTC,2445130.437500,29.6650,-93.4789,0076,25.9000
1982-06-09 23:00:00 UTC,2445130.458333,29.6650,-93.4789,0076,25.8000
1982-06-09 23:30:00 UTC,2445130.479167,29.6650,-93.4789,0076,25.9000
1982-06-10 00:00:00 UTC,2445130.500000,29.6650,-93.4789,0076,25.9000
1982-06-10 00:30:00 UTC,2445130.520833,29.6650,-93.4789,0076,26.2000
1982-06-10 01:00:00 UTC,2445130.541667,29.6650,-93.4789,0076,26.4000
1982-06-10 01:30:00 UTC,2445130.562500,29.6650,-93.4789,0076,26.4000
1982-06-10 02:00:00 UTC,2445130.583333,29.6650,-93.4789,0076,26.3000
1982-06-10 02:30:00 UTC,2445130.604167,29.6650,-93.4789,0076,26.5000
1982-06-10 03:00:00 UTC,2445130.625000,29.6650,-93.4789,0076,26.8000
1982-06-10 03:30:00 UTC,2445130.645833,29.6650,-93.4789,0076,27.1000
1982-06-10 04:00:00 UTC,2445130.666667,29.6650,-93.4789,0076,27.4000